TUI5YT EDDL-LGKO

Flight info

Callsign TUI5YT
Flight time N/A
Altitude 39000
Route KUMIK7T KUMIK Y854 BOMBI DCT DETEV DCT DINKU DCT BESNI DCT GOMIG DCT BEDOX DCT MOSAV DCT VEBAR DCT TORTO DCT MEDUX UM867 KOGAT DCT ERANA UL737 TSL/N0435F370 UN130 MES UN139 LURUS L995 KOPAR
Aircraft B738/M-SDE2E3FGHIRWXY/LB1

Departure

Time 2026-05-04 14:04
Airport Düsseldorf Airport (EDDL)

Arrival

Time N/A
Airport Kos International Airport "Ippokratis" (LGKO)
Time Latitude Longitude Altitude Speed Heading
2026-05-04 13:27 51.27910 6.76253 155 ft 0 kts 61°
2026-05-04 13:50 51.27905 6.76236 154 ft 2 kts 61°
2026-05-04 13:50 51.27897 6.76215 154 ft 2 kts 61°
2026-05-04 13:50 51.27890 6.76194 154 ft 2 kts 61°
2026-05-04 13:51 51.27883 6.76173 154 ft 2 kts 61°
2026-05-04 13:51 51.27875 6.76152 154 ft 2 kts 61°
2026-05-04 13:51 51.27868 6.76130 154 ft 2 kts 61°
2026-05-04 13:51 51.27861 6.76110 154 ft 2 kts 61°
2026-05-04 13:52 51.27846 6.76067 154 ft 2 kts 61°
2026-05-04 13:52 51.27839 6.76046 154 ft 2 kts 61°
2026-05-04 13:52 51.27834 6.76032 154 ft 1 kts 62°
2026-05-04 13:53 51.27824 6.76017 154 ft 2 kts 15°
2026-05-04 13:53 51.27815 6.76015 154 ft 1 kts 353°
2026-05-04 13:53 51.27809 6.76017 154 ft 0 kts 353°
2026-05-04 13:55 51.27889 6.76040 154 ft 9 kts 13°
2026-05-04 13:55 51.27964 6.76049 154 ft 12 kts 359°
2026-05-04 13:56 51.28045 6.76049 154 ft 10 kts
2026-05-04 13:56 51.28112 6.76030 154 ft 8 kts
2026-05-04 13:56 51.28230 6.76234 154 ft 24 kts 52°
2026-05-04 13:57 51.28332 6.76448 154 ft 23 kts 52°
2026-05-04 13:57 51.28432 6.76657 154 ft 24 kts 53°
2026-05-04 13:58 51.28697 6.77215 154 ft 20 kts 52°
2026-05-04 13:58 51.28876 6.77589 154 ft 21 kts 53°
2026-05-04 13:58 51.28970 6.77785 154 ft 22 kts 53°
2026-05-04 13:59 51.29061 6.77976 154 ft 20 kts 53°
2026-05-04 13:59 51.29142 6.78148 154 ft 18 kts 53°
2026-05-04 13:59 51.29292 6.78367 154 ft 11 kts 36°
2026-05-04 14:00 51.29350 6.78434 154 ft 8 kts 35°
2026-05-04 14:00 51.29388 6.78464 154 ft 0 kts 14°
2026-05-04 14:02 51.29426 6.78472 154 ft 11 kts
2026-05-04 14:02 51.29488 6.78427 154 ft 8 kts 288°
2026-05-04 14:02 51.29464 6.78353 154 ft 7 kts 226°
2026-05-04 14:02 51.29444 6.78312 154 ft 0 kts 235°
2026-05-04 14:03 51.29380 6.78175 154 ft 48 kts 233°
2026-05-04 14:03 51.29024 6.77437 154 ft 116 kts 231°
2026-05-04 14:04 51.27760 6.74679 819 ft 166 kts 236°
2026-05-04 14:04 51.27137 6.73201 1602 ft 161 kts 235°
2026-05-04 14:04 51.26455 6.71768 2107 ft 165 kts 232°
2026-05-04 14:05 51.24950 6.68746 2838 ft 186 kts 231°
2026-05-04 14:05 51.24140 6.67072 3222 ft 197 kts 232°
2026-05-04 14:05 51.23286 6.65245 3452 ft 220 kts 232°
2026-05-04 14:06 51.22158 6.63450 3816 ft 239 kts 213°
2026-05-04 14:06 51.20576 6.62483 4183 ft 258 kts 187°
2026-05-04 14:06 51.18765 6.62813 4937 ft 264 kts 162°
2026-05-04 14:06 51.17108 6.63908 5700 ft 266 kts 161°
2026-05-04 14:07 51.15321 6.64717 6373 ft 271 kts 164°
2026-05-04 14:07 51.13678 6.66175 7118 ft 278 kts 138°
2026-05-04 14:07 51.12601 6.68787 7727 ft 290 kts 110°
2026-05-04 14:07 51.12358 6.71940 8468 ft 296 kts 84°
2026-05-04 14:08 51.12878 6.75108 9289 ft 296 kts 71°
2026-05-04 14:08 51.13421 6.78217 10189 ft 293 kts 80°
2026-05-04 14:08 51.13659 6.81453 10726 ft 303 kts 87°
2026-05-04 14:08 51.13749 6.84852 11354 ft 309 kts 90°
2026-05-04 14:09 51.13908 6.91727 12756 ft 318 kts 89°
2026-05-04 14:09 51.14030 6.95275 13496 ft 321 kts 89°
2026-05-04 14:10 51.14276 7.02419 14870 ft 329 kts 89°
2026-05-04 14:10 51.14403 7.06031 15535 ft 334 kts 89°
2026-05-04 14:10 51.14533 7.09769 16198 ft 338 kts 90°
2026-05-04 14:10 51.14664 7.13518 16852 ft 343 kts 90°
2026-05-04 14:11 51.14794 7.17300 17481 ft 347 kts 90°
2026-05-04 14:11 51.15059 7.25060 18710 ft 356 kts 91°
2026-05-04 14:11 51.15191 7.29035 19176 ft 364 kts 91°
2026-05-04 14:12 51.15324 7.33024 19779 ft 367 kts 90°
2026-05-04 14:12 51.15458 7.37091 20345 ft 371 kts 90°
2026-05-04 14:12 51.15727 7.45360 21431 ft 378 kts 90°
2026-05-04 14:13 51.15863 7.49594 21980 ft 381 kts 90°
2026-05-04 14:13 51.15995 7.53770 22501 ft 384 kts 91°
2026-05-04 14:13 51.15956 7.58052 22998 ft 384 kts 99°
2026-05-04 14:13 51.15505 7.62211 23479 ft 382 kts 110°
2026-05-04 14:14 51.14571 7.66148 23968 ft 378 kts 122°
2026-05-04 14:14 51.11648 7.72938 24862 ft 372 kts 142°
2026-05-04 14:14 51.09684 7.75571 25315 ft 369 kts 149°
2026-05-04 14:15 51.05574 7.80570 26061 ft 378 kts 148°
2026-05-04 14:15 51.01410 7.85732 26871 ft 383 kts 148°
2026-05-04 14:16 50.97173 7.90914 27641 ft 388 kts 149°
2026-05-04 14:16 50.95046 7.93509 28007 ft 390 kts 149°
2026-05-04 14:17 50.90720 7.98770 28719 ft 395 kts 149°
2026-05-04 14:17 50.88559 8.01393 29062 ft 397 kts 149°
2026-05-04 14:17 50.84146 8.06735 29741 ft 401 kts 149°
2026-05-04 14:18 50.81905 8.09282 30059 ft 400 kts 153°
2026-05-04 14:18 50.77162 8.13945 30694 ft 403 kts 154°
2026-05-04 14:19 50.72439 8.18687 31361 ft 406 kts 153°
2026-05-04 14:19 50.70099 8.21156 31605 ft 413 kts 148°
2026-05-04 14:19 50.67941 8.24173 31894 ft 420 kts 141°
2026-05-04 14:19 50.65889 8.27477 32105 ft 425 kts 140°
2026-05-04 14:20 50.63806 8.30758 32390 ft 425 kts 141°
2026-05-04 14:20 50.61689 8.34009 32655 ft 427 kts 141°
2026-05-04 14:20 50.59573 8.37254 32913 ft 429 kts 141°
2026-05-04 14:21 50.55299 8.43835 33418 ft 432 kts 141°
2026-05-04 14:21 50.53165 8.47113 33661 ft 434 kts 141°
2026-05-04 14:21 50.50977 8.50468 33902 ft 435 kts 141°
2026-05-04 14:21 50.48828 8.53760 34133 ft 437 kts 141°
2026-05-04 14:22 50.46652 8.57089 34360 ft 439 kts 140°
2026-05-04 14:22 50.44471 8.60421 34580 ft 440 kts 140°
2026-05-04 14:22 50.42294 8.63743 34788 ft 442 kts 140°
2026-05-04 14:22 50.40083 8.67112 34959 ft 443 kts 141°
2026-05-04 14:23 50.33529 8.77076 34967 ft 435 kts 141°
2026-05-04 14:24 50.29189 8.83647 34967 ft 433 kts 141°
2026-05-04 14:24 50.24882 8.90150 34967 ft 435 kts 141°
2026-05-04 14:25 50.20536 8.96696 34967 ft 433 kts 141°
2026-05-04 14:25 50.14053 9.06429 34967 ft 433 kts 141°
2026-05-04 14:26 50.09718 9.12914 34967 ft 433 kts 141°
2026-05-04 14:26 50.05405 9.19349 34967 ft 433 kts 141°
2026-05-04 14:27 50.01062 9.25814 34967 ft 433 kts 141°
2026-05-04 14:27 49.96696 9.32294 34967 ft 435 kts 141°
2026-05-04 14:28 49.92351 9.38728 34967 ft 435 kts 141°
2026-05-04 14:28 49.87965 9.45205 34967 ft 435 kts 141°
2026-05-04 14:29 49.79216 9.58071 34994 ft 435 kts 141°
2026-05-04 14:30 49.74820 9.64512 34994 ft 435 kts 141°
2026-05-04 14:31 49.68349 9.73961 34994 ft 433 kts 141°
2026-05-04 14:32 49.59722 9.86500 34994 ft 435 kts 141°
2026-05-04 14:32 49.55328 9.92864 34994 ft 434 kts 141°
2026-05-04 14:33 49.50923 9.99227 34994 ft 434 kts 141°
2026-05-04 14:33 49.46524 10.05563 34994 ft 434 kts 141°
2026-05-04 14:34 49.42156 10.11840 34994 ft 434 kts 141°
2026-05-04 14:34 49.37718 10.18199 35000 ft 437 kts 141°
2026-05-04 14:35 49.33322 10.24485 34993 ft 434 kts 141°
2026-05-04 14:35 49.28890 10.30804 35000 ft 435 kts 141°
2026-05-04 14:36 49.24465 10.37096 35000 ft 436 kts 141°
2026-05-04 14:36 49.20109 10.43455 34999 ft 436 kts 139°
2026-05-04 14:37 49.15803 10.49915 35000 ft 435 kts 140°
2026-05-04 14:37 49.11449 10.56372 35000 ft 436 kts 140°
2026-05-04 14:38 49.07120 10.62783 35000 ft 436 kts 140°
2026-05-04 14:38 49.02766 10.69210 35206 ft 436 kts 140°
2026-05-04 14:38 49.00616 10.72376 35418 ft 437 kts 140°
2026-05-04 14:39 48.98420 10.75604 35628 ft 439 kts 140°
2026-05-04 14:39 48.96222 10.78831 35770 ft 441 kts 140°
2026-05-04 14:39 48.94030 10.82047 36022 ft 441 kts 140°
2026-05-04 14:40 48.89603 10.88530 36431 ft 442 kts 140°
2026-05-04 14:40 48.87487 10.91623 36580 ft 442 kts 140°
2026-05-04 14:40 48.85256 10.94879 36728 ft 442 kts 140°
2026-05-04 14:40 48.83065 10.98073 36874 ft 441 kts 140°
2026-05-04 14:41 48.78624 11.04533 36967 ft 442 kts 140°
2026-05-04 14:42 48.69811 11.17302 36968 ft 440 kts 140°
2026-05-04 14:42 48.65517 11.23863 36966 ft 443 kts 133°
2026-05-04 14:43 48.62216 11.31739 36968 ft 449 kts 120°
2026-05-04 14:43 48.59365 11.40098 36940 ft 449 kts 120°
2026-05-04 14:44 48.56465 11.48412 36940 ft 448 kts 120°
2026-05-04 14:44 48.53592 11.56720 36940 ft 448 kts 120°
2026-05-04 14:45 48.50721 11.65010 36940 ft 449 kts 121°
2026-05-04 14:45 48.47833 11.73340 36940 ft 448 kts 121°
2026-05-04 14:46 48.44946 11.81647 36940 ft 449 kts 121°
2026-05-04 14:46 48.42046 11.89970 36940 ft 449 kts 121°
2026-05-04 14:47 48.39162 11.98225 36940 ft 449 kts 121°
2026-05-04 14:47 48.36254 12.06524 36940 ft 449 kts 121°
2026-05-04 14:48 48.33353 12.14776 36940 ft 449 kts 121°
2026-05-04 14:48 48.30436 12.23046 36940 ft 449 kts 121°
2026-05-04 14:49 48.27499 12.31348 36940 ft 449 kts 121°
2026-05-04 14:49 48.24582 12.39567 36940 ft 449 kts 120°
2026-05-04 14:50 48.21649 12.47808 36940 ft 448 kts 120°
2026-05-04 14:50 48.18718 12.56014 36939 ft 448 kts 120°
2026-05-04 14:51 48.15784 12.64198 36913 ft 448 kts 121°
2026-05-04 14:51 48.12382 12.71923 36914 ft 443 kts 133°
2026-05-04 14:52 48.08403 12.78913 36913 ft 443 kts 133°
2026-05-04 14:52 48.04494 12.85958 36913 ft 442 kts 133°
2026-05-04 14:53 48.00549 12.92958 36913 ft 442 kts 133°
2026-05-04 14:53 47.96583 12.99952 36913 ft 442 kts 133°
2026-05-04 14:54 47.92637 13.06879 36913 ft 442 kts 133°
2026-05-04 14:54 47.88657 13.13843 36913 ft 442 kts 133°
2026-05-04 14:55 47.84679 13.20778 36913 ft 442 kts 133°
2026-05-04 14:55 47.80691 13.27710 36913 ft 442 kts 133°
2026-05-04 14:56 47.76692 13.34642 36913 ft 443 kts 133°
2026-05-04 14:56 47.72688 13.41564 36913 ft 442 kts 133°
2026-05-04 14:57 47.68691 13.48456 36913 ft 442 kts 133°
2026-05-04 14:57 47.64700 13.55321 36913 ft 442 kts 133°
2026-05-04 14:58 47.60685 13.62209 36913 ft 442 kts 133°
2026-05-04 14:58 47.56677 13.69066 36913 ft 442 kts 133°
2026-05-04 14:59 47.52667 13.75909 36913 ft 442 kts 133°
2026-05-04 15:00 47.46620 13.86196 36917 ft 444 kts 133°
2026-05-04 15:00 47.42570 13.93066 36993 ft 444 kts 134°
2026-05-04 15:01 47.36497 14.03330 36994 ft 444 kts 134°
2026-05-04 15:01 47.32443 14.10162 36994 ft 444 kts 134°
2026-05-04 15:02 47.28388 14.16977 36994 ft 444 kts 134°
2026-05-04 15:02 47.24343 14.23758 36994 ft 444 kts 133°
2026-05-04 15:03 47.22993 14.26018 36994 ft 444 kts 133°